Tabellarische Ansicht des 12.11.2012


Die einzelnen Werte des Tages

Uhrzeit Temperatur Luftdruck Luftfeuchte Wind Hi-Wind Taupunkt THW Index Wind Chill Heat Index Solar- strahlung Regen

00:00

5.8 C

1016.1 hpa

91 %

9.7 km/h aus 117

16.1 km/h aus SSW

4.4 C

3.7 C

3.7 C

5.8 C

0 W/m

0.00 mm

00:05

5.9 C

1016.1 hpa

91 %

9.7 km/h aus 114

16.1 km/h aus S

4.5 C

3.8 C

3.8 C

5.9 C

0 W/m

0.00 mm

00:10

5.9 C

1016.1 hpa

91 %

12.9 km/h aus 117

20.9 km/h aus S

4.6 C

3.2 C

3.2 C

5.9 C

0 W/m

0.00 mm

00:15

5.9 C

1016.1 hpa

91 %

8.0 km/h aus 116

14.5 km/h aus S

4.6 C

4.2 C

4.2 C

5.9 C

0 W/m

0.00 mm

00:20

5.9 C

1016.1 hpa

91 %

11.3 km/h aus 117

20.9 km/h aus SSW

4.5 C

3.5 C

3.5 C

5.9 C

0 W/m

0.00 mm

00:25

5.9 C

1016.1 hpa

91 %

11.3 km/h aus 116

19.3 km/h aus S

4.5 C

3.5 C

3.5 C

5.9 C

0 W/m

0.00 mm

00:30

5.9 C

1016.3 hpa

91 %

9.7 km/h aus 114

16.1 km/h aus S

4.5 C

3.8 C

3.8 C

5.9 C

0 W/m

0.00 mm

00:35

5.9 C

1016.3 hpa

92 %

8.0 km/h aus 117

14.5 km/h aus S

4.7 C

4.2 C

4.2 C

5.9 C

0 W/m

0.00 mm

00:40

5.9 C

1016.3 hpa

92 %

8.0 km/h aus 118

16.1 km/h aus SSW

4.7 C

4.2 C

4.2 C

5.9 C

0 W/m

0.00 mm

00:45

6.0 C

1016.5 hpa

92 %

9.7 km/h aus 117

17.7 km/h aus S

4.8 C

3.9 C

3.9 C

6.0 C

0 W/m

0.00 mm

00:50

6.1 C

1016.5 hpa

92 %

12.9 km/h aus 117

19.3 km/h aus SSW

4.9 C

3.4 C

3.4 C

6.1 C

0 W/m

0.00 mm

00:55

6.2 C

1016.5 hpa

92 %

14.5 km/h aus 117

20.9 km/h aus SSW

5.0 C

3.3 C

3.2 C

6.3 C

0 W/m

0.00 mm

01:00

6.3 C

1016.6 hpa

92 %

11.3 km/h aus 117

22.5 km/h aus SSW

5.1 C

4.1 C

4.0 C

6.3 C

0 W/m

0.00 mm

01:05

6.3 C

1016.6 hpa

92 %

12.9 km/h aus 115

19.3 km/h aus SSW

5.1 C

3.8 C

3.7 C

6.4 C

0 W/m

0.00 mm

01:10

6.4 C

1016.6 hpa

92 %

12.9 km/h aus 117

20.9 km/h aus SSW

5.2 C

3.8 C

3.8 C

6.4 C

0 W/m

0.00 mm

01:15

6.4 C

1016.6 hpa

92 %

12.9 km/h aus 117

20.9 km/h aus SSW

5.2 C

3.9 C

3.8 C

6.5 C

0 W/m

0.00 mm

01:20

6.4 C

1016.6 hpa

92 %

9.7 km/h aus 117

19.3 km/h aus S

5.2 C

4.5 C

4.4 C

6.5 C

0 W/m

0.00 mm

01:25

6.4 C

1016.6 hpa

92 %

9.7 km/h aus 117

17.7 km/h aus SSW

5.2 C

4.5 C

4.4 C

6.5 C

0 W/m

0.00 mm

01:30

6.4 C

1016.6 hpa

92 %

6.4 km/h aus 117

9.7 km/h aus SSW

5.2 C

5.3 C

5.3 C

6.5 C

0 W/m

0.00 mm

01:35

6.4 C

1016.6 hpa

92 %

8.0 km/h aus 117

19.3 km/h aus S

5.2 C

4.8 C

4.8 C

6.4 C

0 W/m

0.00 mm

01:40

6.4 C

1016.6 hpa

92 %

9.7 km/h aus 117

17.7 km/h aus SSW

5.2 C

4.5 C

4.4 C

6.5 C

0 W/m

0.00 mm

01:45

6.4 C

1016.7 hpa

92 %

11.3 km/h aus 117

17.7 km/h aus SSW

5.2 C

4.2 C

4.2 C

6.5 C

0 W/m

0.00 mm

01:50

6.5 C

1016.7 hpa

92 %

11.3 km/h aus 117

19.3 km/h aus SSW

5.3 C

4.3 C

4.2 C

6.6 C

0 W/m

0.00 mm

01:55

6.5 C

1016.7 hpa

92 %

9.7 km/h aus 117

16.1 km/h aus SSW

5.3 C

4.6 C

4.5 C

6.6 C

0 W/m

0.00 mm

02:00

6.6 C

1016.9 hpa

92 %

9.7 km/h aus 117

16.1 km/h aus SW

5.3 C

4.7 C

4.6 C

6.6 C

0 W/m

0.00 mm

02:05

6.6 C

1016.9 hpa

92 %

9.7 km/h aus 117

16.1 km/h aus SSW

5.3 C

4.7 C

4.6 C

6.6 C

0 W/m

0.00 mm

02:10

6.6 C

1016.9 hpa

92 %

8.0 km/h aus 117

14.5 km/h aus SSW

5.3 C

5.1 C

5.0 C

6.6 C

0 W/m

0.00 mm

02:15

6.6 C

1017.1 hpa

92 %

9.7 km/h aus 116

19.3 km/h aus SW

5.3 C

4.7 C

4.6 C

6.6 C

0 W/m

0.00 mm

02:20

6.6 C

1017.1 hpa

92 %

11.3 km/h aus 116

16.1 km/h aus SSW

5.4 C

4.4 C

4.4 C

6.7 C

0 W/m

0.00 mm

02:25

6.6 C

1017.1 hpa

92 %

11.3 km/h aus 117

19.3 km/h aus SW

5.4 C

4.4 C

4.4 C

6.7 C

0 W/m

0.00 mm

02:30

6.7 C

1017.3 hpa

92 %

9.7 km/h aus 116

17.7 km/h aus SSW

5.5 C

4.8 C

4.7 C

6.7 C

0 W/m

0.00 mm

02:35

6.7 C

1017.3 hpa

92 %

11.3 km/h aus 116

20.9 km/h aus SSW

5.5 C

4.5 C

4.4 C

6.7 C

0 W/m

0.00 mm

02:40

6.7 C

1017.3 hpa

92 %

12.9 km/h aus 117

20.9 km/h aus SSW

5.5 C

4.2 C

4.1 C

6.7 C

0 W/m

0.00 mm

02:45

6.7 C

1017.5 hpa

92 %

9.7 km/h aus 117

17.7 km/h aus SSW

5.5 C

4.8 C

4.7 C

6.7 C

0 W/m

0.00 mm

02:50

6.7 C

1017.5 hpa

92 %

8.0 km/h aus 117

17.7 km/h aus SSW

5.5 C

5.2 C

5.1 C

6.7 C

0 W/m

0.00 mm

02:55

6.7 C

1017.5 hpa

92 %

8.0 km/h aus 116

14.5 km/h aus SW

5.5 C

5.2 C

5.1 C

6.7 C

0 W/m

0.00 mm

03:00

6.7 C

1017.6 hpa

92 %

6.4 km/h aus 117

16.1 km/h aus SW

5.5 C

5.6 C

5.6 C

6.8 C

0 W/m

0.00 mm

03:05

6.7 C

1017.6 hpa

92 %

9.7 km/h aus 117

20.9 km/h aus SW

5.5 C

4.8 C

4.7 C

6.7 C

0 W/m

0.00 mm

03:10

6.7 C

1017.6 hpa

92 %

12.9 km/h aus 117

19.3 km/h aus SSW

5.5 C

4.2 C

4.1 C

6.7 C

0 W/m

0.00 mm

03:15

6.7 C

1017.7 hpa

92 %

12.9 km/h aus 117

22.5 km/h aus SSW

5.5 C

4.2 C

4.1 C

6.7 C

0 W/m

0.00 mm

03:20

6.7 C

1017.7 hpa

92 %

9.7 km/h aus 116

19.3 km/h aus SSW

5.5 C

4.8 C

4.7 C

6.7 C

0 W/m

0.00 mm

03:25

6.7 C

1017.7 hpa

92 %

8.0 km/h aus 117

16.1 km/h aus SW

5.5 C

5.2 C

5.1 C

6.7 C

0 W/m

0.00 mm

03:30

6.7 C

1017.8 hpa

92 %

8.0 km/h aus 116

16.1 km/h aus SW

5.5 C

5.2 C

5.1 C

6.7 C

0 W/m

0.00 mm

03:35

6.7 C

1017.8 hpa

92 %

11.3 km/h aus 116

20.9 km/h aus S

5.5 C

4.5 C

4.4 C

6.7 C

0 W/m

0.00 mm

03:40

6.7 C

1017.8 hpa

92 %

8.0 km/h aus 117

17.7 km/h aus SSW

5.5 C

5.2 C

5.1 C

6.7 C

0 W/m

0.00 mm

03:45

6.7 C

1017.8 hpa

92 %

9.7 km/h aus 116

17.7 km/h aus SW

5.5 C

4.8 C

4.8 C

6.8 C

0 W/m

0.00 mm

03:50

6.7 C

1017.8 hpa

92 %

8.0 km/h aus 118

19.3 km/h aus SW

5.5 C

5.2 C

5.2 C

6.8 C

0 W/m

0.00 mm

03:55

6.7 C

1017.8 hpa

92 %

8.0 km/h aus 117

16.1 km/h aus SW

5.5 C

5.2 C

5.2 C

6.8 C

0 W/m

0.00 mm

04:00

6.7 C

1017.9 hpa

92 %

11.3 km/h aus 117

20.9 km/h aus S

5.5 C

4.6 C

4.5 C

6.8 C

0 W/m

0.00 mm

04:05

6.7 C

1017.9 hpa

92 %

8.0 km/h aus 117

17.7 km/h aus SSW

5.5 C

5.2 C

5.2 C

6.8 C

0 W/m

0.00 mm

04:10

6.7 C

1017.9 hpa

91 %

8.0 km/h aus 117

16.1 km/h aus SW

5.4 C

5.2 C

5.2 C

6.8 C

0 W/m

0.00 mm

04:15

6.7 C

1018.1 hpa

91 %

11.3 km/h aus 116

17.7 km/h aus WSW

5.4 C

4.6 C

4.5 C

6.8 C

0 W/m

0.00 mm

04:20

6.7 C

1018.1 hpa

91 %

8.0 km/h aus 117

16.1 km/h aus SSW

5.4 C

5.2 C

5.2 C

6.8 C

0 W/m

0.00 mm

04:25

6.7 C

1018.1 hpa

91 %

6.4 km/h aus 116

11.3 km/h aus SW

5.4 C

5.6 C

5.6 C

6.8 C

0 W/m

0.00 mm

04:30

6.7 C

1018.2 hpa

91 %

6.4 km/h aus 117

19.3 km/h aus WSW

5.4 C

5.6 C

5.6 C

6.8 C

0 W/m

0.00 mm

04:35

6.7 C

1018.2 hpa

91 %

8.0 km/h aus 117

17.7 km/h aus SW

5.4 C

5.2 C

5.2 C

6.8 C

0 W/m

0.00 mm

04:40

6.7 C

1018.2 hpa

91 %

6.4 km/h aus 117

14.5 km/h aus WSW

5.4 C

5.6 C

5.6 C

6.8 C

0 W/m

0.00 mm

04:45

6.8 C

1018.3 hpa

91 %

6.4 km/h aus 117

19.3 km/h aus WSW

5.4 C

5.7 C

5.6 C

6.8 C

0 W/m

0.00 mm

04:50

6.8 C

1018.3 hpa

91 %

8.0 km/h aus 117

16.1 km/h aus WSW

5.4 C

5.3 C

5.2 C

6.8 C

0 W/m

0.00 mm

04:55

6.7 C

1018.3 hpa

91 %

8.0 km/h aus 118

14.5 km/h aus SW

5.4 C

5.2 C

5.2 C

6.8 C

0 W/m

0.00 mm

05:00

6.7 C

1018.3 hpa

91 %

9.7 km/h aus 117

17.7 km/h aus SSW

5.4 C

4.8 C

4.8 C

6.8 C

0 W/m

0.00 mm

05:05

6.7 C

1018.3 hpa

91 %

11.3 km/h aus 117

25.7 km/h aus SSW

5.4 C

4.6 C

4.5 C

6.8 C

0 W/m

0.00 mm

05:10

6.7 C

1018.3 hpa

91 %

16.1 km/h aus 117

27.4 km/h aus SW

5.4 C

3.6 C

3.6 C

6.8 C

0 W/m

0.00 mm

05:15

6.7 C

1018.5 hpa

91 %

8.0 km/h aus 117

17.7 km/h aus SSW

5.3 C

5.2 C

5.1 C

6.7 C

0 W/m

0.00 mm

05:20

6.7 C

1018.5 hpa

91 %

8.0 km/h aus 117

17.7 km/h aus SW

5.3 C

5.2 C

5.1 C

6.7 C

0 W/m

0.00 mm

05:25

6.7 C

1018.5 hpa

91 %

8.0 km/h aus 117

17.7 km/h aus SSW

5.4 C

5.2 C

5.2 C

6.8 C

0 W/m

0.00 mm

05:30

6.7 C

1018.7 hpa

91 %

6.4 km/h aus 117

12.9 km/h aus WSW

5.4 C

5.6 C

5.6 C

6.8 C

0 W/m

0.00 mm

05:35

6.7 C

1018.7 hpa

91 %

6.4 km/h aus 115

14.5 km/h aus WSW

5.4 C

5.6 C

5.6 C

6.8 C

0 W/m

0.00 mm

05:40

6.7 C

1018.7 hpa

91 %

6.4 km/h aus 117

14.5 km/h aus S

5.3 C

5.6 C

5.5 C

6.7 C

0 W/m

0.00 mm

05:45

6.7 C

1018.7 hpa

91 %

8.0 km/h aus 116

19.3 km/h aus WSW

5.3 C

5.2 C

5.1 C

6.7 C

0 W/m

0.00 mm

05:50

6.6 C

1018.7 hpa

91 %

9.7 km/h aus 117

17.7 km/h aus W

5.2 C

4.7 C

4.7 C

6.7 C

0 W/m

0.00 mm

05:55

6.6 C

1018.7 hpa

91 %

6.4 km/h aus 117

14.5 km/h aus WSW

5.2 C

5.4 C

5.4 C

6.6 C

0 W/m

0.00 mm

06:00

6.6 C

1018.7 hpa

91 %

9.7 km/h aus 118

19.3 km/h aus WSW

5.2 C

4.7 C

4.6 C

6.6 C

0 W/m

0.00 mm

06:05

6.5 C

1018.7 hpa

90 %

9.7 km/h aus 117

20.9 km/h aus SW

5.0 C

4.6 C

4.5 C

6.6 C

0 W/m

0.00 mm

06:10

6.4 C

1018.7 hpa

90 %

9.7 km/h aus 116

17.7 km/h aus SW

4.9 C

4.5 C

4.4 C

6.5 C

0 W/m

0.00 mm

06:15

6.4 C

1019.2 hpa

90 %

8.0 km/h aus 116

17.7 km/h aus WSW

4.9 C

4.9 C

4.8 C

6.5 C

0 W/m

0.00 mm

06:20

6.4 C

1019.2 hpa

90 %

9.7 km/h aus 116

17.7 km/h aus SW

4.9 C

4.5 C

4.4 C

6.5 C

0 W/m

0.00 mm

06:25

6.4 C

1019.2 hpa

90 %

8.0 km/h aus 117

16.1 km/h aus WSW

4.9 C

4.9 C

4.8 C

6.5 C

0 W/m

0.00 mm

06:30

6.4 C

1019.3 hpa

90 %

8.0 km/h aus 117

22.5 km/h aus W

4.9 C

4.9 C

4.8 C

6.5 C

0 W/m

0.00 mm

06:35

6.4 C

1019.3 hpa

90 %

11.3 km/h aus 117

20.9 km/h aus WSW

4.9 C

4.1 C

4.1 C

6.4 C

0 W/m

0.00 mm

06:40

6.3 C

1019.3 hpa

90 %

9.7 km/h aus 117

16.1 km/h aus SW

4.8 C

4.3 C

4.3 C

6.3 C

0 W/m

0.00 mm

06:45

6.3 C

1019.5 hpa

90 %

6.4 km/h aus 117

14.5 km/h aus WSW

4.8 C

5.1 C

5.1 C

6.3 C

0 W/m

0.00 mm

06:50

6.3 C

1019.5 hpa

90 %

11.3 km/h aus 117

22.5 km/h aus SW

4.8 C

4.0 C

4.0 C

6.3 C

0 W/m

0.00 mm

06:55

6.3 C

1019.5 hpa

89 %

12.9 km/h aus 117

24.1 km/h aus SSW

4.6 C

3.7 C

3.7 C

6.3 C

0 W/m

0.00 mm

07:00

6.2 C

1019.7 hpa

89 %

12.9 km/h aus 116

27.4 km/h aus SW

4.5 C

3.6 C

3.6 C

6.2 C

0 W/m

0.00 mm

07:05

6.2 C

1019.7 hpa

89 %

8.0 km/h aus 118

19.3 km/h aus W

4.5 C

4.6 C

4.6 C

6.2 C

0 W/m

0.00 mm

07:10

6.2 C

1019.7 hpa

89 %

6.4 km/h aus 117

16.1 km/h aus SW

4.5 C

5.0 C

5.0 C

6.2 C

0 W/m

0.00 mm

07:15

6.2 C

1019.8 hpa

89 %

4.8 km/h aus 117

8.0 km/h aus WSW

4.5 C

5.6 C

5.6 C

6.2 C

0 W/m

0.00 mm

07:20

6.2 C

1019.8 hpa

89 %

6.4 km/h aus 116

16.1 km/h aus SSW

4.5 C

5.0 C

5.0 C

6.2 C

0 W/m

0.00 mm

07:25

6.2 C

1019.8 hpa

89 %

9.7 km/h aus 116

19.3 km/h aus SSW

4.5 C

4.2 C

4.2 C

6.2 C

0 W/m

0.00 mm

07:30

6.2 C

1020.2 hpa

89 %

12.9 km/h aus 117

22.5 km/h aus SSW

4.5 C

3.6 C

3.6 C

6.2 C

0 W/m

0.00 mm

07:35

6.2 C

1020.2 hpa

88 %

16.1 km/h aus 116

24.1 km/h aus SSW

4.4 C

2.9 C

2.9 C

6.2 C

0 W/m

0.00 mm

07:40

6.2 C

1020.2 hpa

88 %

12.9 km/h aus 116

25.7 km/h aus SSW

4.4 C

3.6 C

3.6 C

6.2 C

0 W/m

0.00 mm

07:45

6.2 C

1020.3 hpa

88 %

16.1 km/h aus 117

27.4 km/h aus SSW

4.3 C

2.9 C

2.9 C

6.2 C

0 W/m

0.00 mm

07:50

6.2 C

1020.3 hpa

88 %

11.3 km/h aus 117

22.5 km/h aus WSW

4.3 C

3.8 C

3.8 C

6.2 C

0 W/m

0.00 mm

07:55

6.2 C

1020.3 hpa

88 %

11.3 km/h aus 116

19.3 km/h aus SW

4.3 C

3.8 C

3.8 C

6.2 C

0 W/m

0.00 mm

08:00

6.2 C

1020.6 hpa

88 %

8.0 km/h aus 117

17.7 km/h aus S

4.3 C

4.5 C

4.5 C

6.2 C

0 W/m

0.00 mm

08:05

6.2 C

1020.6 hpa

88 %

12.9 km/h aus 118

25.7 km/h aus SSW

4.3 C

3.5 C

3.5 C

6.2 C

0 W/m

0.00 mm

08:10

6.2 C

1020.6 hpa

88 %

9.7 km/h aus 116

19.3 km/h aus SW

4.3 C

4.1 C

4.1 C

6.2 C

0 W/m

0.00 mm

08:15

6.2 C

1020.7 hpa

88 %

9.7 km/h aus 115

19.3 km/h aus SW

4.3 C

4.1 C

4.1 C

6.2 C

0 W/m

0.00 mm

08:20

6.2 C

1020.7 hpa

88 %

9.7 km/h aus 117

14.5 km/h aus SW

4.3 C

4.1 C

4.1 C

6.2 C

0 W/m

0.00 mm

08:25

6.2 C

1020.7 hpa

88 %

9.7 km/h aus 116

16.1 km/h aus SSW

4.3 C

4.1 C

4.1 C

6.2 C

0 W/m

0.00 mm

08:30

6.2 C

1020.6 hpa

88 %

8.0 km/h aus 117

14.5 km/h aus SSW

4.3 C

4.5 C

4.5 C

6.2 C

0 W/m

0.00 mm

08:35

6.2 C

1020.6 hpa

88 %

8.0 km/h aus 117

14.5 km/h aus SSW

4.3 C

4.5 C

4.5 C

6.2 C

0 W/m

0.00 mm

08:40

6.2 C

1020.6 hpa

88 %

6.4 km/h aus 116

11.3 km/h aus S

4.4 C

5.0 C

5.0 C

6.2 C

0 W/m

0.00 mm

08:45

6.2 C

1020.7 hpa

88 %

8.0 km/h aus 117

16.1 km/h aus SSW

4.4 C

4.6 C

4.6 C

6.2 C

0 W/m

0.00 mm

08:50

6.2 C

1020.7 hpa

88 %

6.4 km/h aus 116

11.3 km/h aus S

4.4 C

5.0 C

5.0 C

6.2 C

0 W/m

0.00 mm

08:55

6.2 C

1020.7 hpa

88 %

8.0 km/h aus 117

16.1 km/h aus S

4.4 C

4.6 C

4.6 C

6.2 C

0 W/m

0.00 mm

09:00

6.2 C

1020.7 hpa

88 %

6.4 km/h aus 117

12.9 km/h aus SW

4.4 C

5.0 C

5.0 C

6.2 C

0 W/m

0.00 mm

09:05

6.2 C

1020.7 hpa

88 %

6.4 km/h aus 117

14.5 km/h aus SSW

4.4 C

5.0 C

5.0 C

6.2 C

0 W/m

0.00 mm

09:10

6.3 C

1020.7 hpa

88 %

6.4 km/h aus 116

16.1 km/h aus SW

4.4 C

5.1 C

5.1 C

6.3 C

0 W/m

0.00 mm

09:15

6.3 C

1020.7 hpa

88 %

8.0 km/h aus 116

19.3 km/h aus S

4.5 C

4.7 C

4.7 C

6.3 C

0 W/m

0.00 mm

09:20

6.4 C

1020.7 hpa

88 %

6.4 km/h aus 117

16.1 km/h aus S

4.6 C

5.3 C

5.3 C

6.4 C

0 W/m

0.00 mm

09:25

6.6 C

1020.7 hpa

88 %

6.4 km/h aus 117

14.5 km/h aus SSW

4.7 C

5.4 C

5.4 C

6.6 C

0 W/m

0.00 mm

09:30

6.9 C

1020.7 hpa

87 %

11.3 km/h aus 116

20.9 km/h aus S

4.9 C

4.8 C

4.8 C

6.9 C

0 W/m

0.00 mm

09:35

7.3 C

1020.7 hpa

86 %

9.7 km/h aus 117

20.9 km/h aus SSW

5.1 C

5.5 C

5.5 C

7.3 C

0 W/m

0.00 mm

09:40

7.5 C

1020.7 hpa

84 %

14.5 km/h aus 117

22.5 km/h aus SSW

5.0 C

4.7 C

4.8 C

7.4 C

0 W/m

0.00 mm

09:45

7.7 C

1020.6 hpa

83 %

14.5 km/h aus 117

24.1 km/h aus SSW

5.0 C

4.9 C

5.0 C

7.6 C

0 W/m

0.00 mm

09:50

7.8 C

1020.6 hpa

83 %

14.5 km/h aus 117

20.9 km/h aus S

5.1 C

5.1 C

5.2 C

7.8 C

0 W/m

0.00 mm

09:55

7.9 C

1020.6 hpa

82 %

16.1 km/h aus 117

24.1 km/h aus S

5.1 C

4.9 C

5.0 C

7.9 C

0 W/m

0.00 mm

10:00

7.9 C

1020.7 hpa

82 %

14.5 km/h aus 117

25.7 km/h aus SSW

5.1 C

5.2 C

5.3 C

7.9 C

0 W/m

0.00 mm

10:05

7.9 C

1020.7 hpa

82 %

11.3 km/h aus 117

19.3 km/h aus SSW

5.1 C

5.9 C

6.0 C

7.9 C

0 W/m

0.00 mm

10:10

7.9 C

1020.7 hpa

82 %

11.3 km/h aus 117

22.5 km/h aus SSW

5.0 C

5.8 C

5.9 C

7.8 C

0 W/m

0.00 mm

10:15

7.9 C

1020.7 hpa

81 %

14.5 km/h aus 118

22.5 km/h aus SSW

4.8 C

5.1 C

5.2 C

7.8 C

0 W/m

0.00 mm

10:20

8.0 C

1020.7 hpa

81 %

11.3 km/h aus 116

19.3 km/h aus SSW

4.9 C

5.9 C

6.1 C

7.9 C

0 W/m

0.00 mm

10:25

8.1 C

1020.7 hpa

81 %

12.9 km/h aus 116

25.7 km/h aus SSW

5.0 C

5.7 C

5.8 C

8.0 C

0 W/m

0.00 mm

10:30

8.2 C

1020.8 hpa

81 %

12.9 km/h aus 117

19.3 km/h aus SSW

5.1 C

5.8 C

5.9 C

8.1 C

0 W/m

0.00 mm

10:35

8.3 C

1020.8 hpa

81 %

12.9 km/h aus 117

24.1 km/h aus SSW

5.3 C

5.9 C

6.1 C

8.2 C

0 W/m

0.00 mm

10:40

8.3 C

1020.8 hpa

80 %

16.1 km/h aus 117

29.0 km/h aus SSW

5.1 C

5.3 C

5.4 C

8.2 C

0 W/m

0.00 mm

10:45

8.4 C

1020.9 hpa

80 %

14.5 km/h aus 117

24.1 km/h aus SSW

5.2 C

5.7 C

5.8 C

8.3 C

0 W/m

0.00 mm

10:50

8.5 C

1020.9 hpa

80 %

12.9 km/h aus 117

24.1 km/h aus SW

5.2 C

6.2 C

6.3 C

8.4 C

0 W/m

0.00 mm

10:55

8.6 C

1020.9 hpa

80 %

14.5 km/h aus 117

22.5 km/h aus S

5.3 C

5.9 C

6.0 C

8.4 C

0 W/m

0.00 mm

11:00

8.5 C

1021.2 hpa

80 %

12.9 km/h aus 117

20.9 km/h aus S

5.2 C

6.2 C

6.3 C

8.4 C

0 W/m

0.00 mm

11:05

8.4 C

1021.2 hpa

80 %

16.1 km/h aus 116

24.1 km/h aus SSW

5.2 C

5.4 C

5.6 C

8.3 C

0 W/m

0.00 mm

11:10

8.5 C

1021.2 hpa

80 %

16.1 km/h aus 117

30.6 km/h aus S

5.2 C

5.6 C

5.7 C

8.4 C

0 W/m

0.00 mm

11:15

8.7 C

1021.1 hpa

81 %

11.3 km/h aus 118

19.3 km/h aus SW

5.6 C

6.8 C

6.9 C

8.7 C

0 W/m

0.00 mm

11:20

8.9 C

1021.1 hpa

80 %

14.5 km/h aus 117

33.8 km/h aus SSW

5.7 C

6.4 C

6.4 C

8.9 C

0 W/m

0.00 mm

11:25

8.9 C

1021.1 hpa

79 %

12.9 km/h aus 117

20.9 km/h aus SW

5.5 C

6.7 C

6.8 C

8.9 C

0 W/m

0.00 mm

11:30

8.9 C

1021.2 hpa

80 %

14.5 km/h aus 117

29.0 km/h aus SSW

5.7 C

6.4 C

6.4 C

8.9 C

0 W/m

0.00 mm

11:35

8.9 C

1021.2 hpa

80 %

16.1 km/h aus 117

29.0 km/h aus SSW

5.6 C

6.1 C

6.1 C

8.8 C

0 W/m

0.00 mm

11:40

8.9 C

1021.2 hpa

79 %

16.1 km/h aus 117

22.5 km/h aus SSW

5.5 C

6.1 C

6.2 C

8.9 C

0 W/m

0.00 mm

11:45

8.9 C

1021.1 hpa

79 %

16.1 km/h aus 116

27.4 km/h aus SSW

5.5 C

6.1 C

6.2 C

8.9 C

0 W/m

0.00 mm

11:50

8.9 C

1021.1 hpa

79 %

14.5 km/h aus 116

27.4 km/h aus SSW

5.5 C

6.4 C

6.4 C

8.9 C

0 W/m

0.00 mm

11:55

9.1 C

1021.1 hpa

79 %

9.7 km/h aus 116

17.7 km/h aus SSW

5.7 C

7.6 C

7.7 C

9.1 C

0 W/m

0.00 mm

12:00

9.2 C

1021.2 hpa

79 %

12.9 km/h aus 117

22.5 km/h aus SSW

5.7 C

7.0 C

7.1 C

9.1 C

0 W/m

0.00 mm

12:05

9.1 C

1021.2 hpa

79 %

17.7 km/h aus 116

25.7 km/h aus SSW

5.7 C

6.0 C

6.1 C

9.1 C

0 W/m

0.00 mm

12:10

8.9 C

1021.2 hpa

79 %

12.9 km/h aus 116

20.9 km/h aus SW

5.4 C

6.7 C

6.7 C

8.8 C

0 W/m

0.00 mm

12:15

9.2 C

1021.3 hpa

80 %

9.7 km/h aus 117

17.7 km/h aus SSW

5.9 C

7.7 C

7.7 C

9.1 C

0 W/m

0.00 mm

12:20

9.3 C

1021.3 hpa

79 %

14.5 km/h aus 118

25.7 km/h aus SSW

5.8 C

6.8 C

6.8 C

9.2 C

0 W/m

0.00 mm

12:25

9.2 C

1021.3 hpa

79 %

17.7 km/h aus 117

30.6 km/h aus SSW

5.8 C

6.2 C

6.2 C

9.2 C

0 W/m

0.00 mm

12:30

9.1 C

1021.3 hpa

78 %

17.7 km/h aus 117

24.1 km/h aus SW

5.5 C

5.9 C

6.1 C

9.0 C

0 W/m

0.00 mm

12:35

9.2 C

1021.3 hpa

79 %

12.9 km/h aus 117

20.9 km/h aus SSW

5.8 C

7.1 C

7.1 C

9.2 C

0 W/m

0.00 mm

12:40

9.3 C

1021.3 hpa

78 %

12.9 km/h aus 117

25.7 km/h aus S

5.7 C

7.2 C

7.3 C

9.2 C

0 W/m

0.00 mm

12:45

9.4 C

1021.3 hpa

78 %

14.5 km/h aus 117

30.6 km/h aus SSW

5.7 C

6.9 C

7.0 C

9.3 C

0 W/m

0.00 mm

12:50

9.3 C

1021.3 hpa

78 %

16.1 km/h aus 116

22.5 km/h aus SSW

5.7 C

6.5 C

6.6 C

9.2 C

0 W/m

0.00 mm

12:55

9.5 C

1021.3 hpa

78 %

12.9 km/h aus 116

27.4 km/h aus SW

5.9 C

7.3 C

7.4 C

9.4 C

0 W/m

0.00 mm

13:00

9.6 C

1021.3 hpa

78 %

14.5 km/h aus 117

25.7 km/h aus SSW

5.9 C

7.1 C

7.2 C

9.4 C

0 W/m

0.00 mm

13:05

9.6 C

1021.3 hpa

77 %

16.1 km/h aus 117

27.4 km/h aus SW

5.7 C

6.7 C

6.8 C

9.4 C

0 W/m

0.00 mm

13:10

9.5 C

1021.3 hpa

78 %

11.3 km/h aus 117

19.3 km/h aus SSW

5.9 C

7.7 C

7.8 C

9.4 C

0 W/m

0.00 mm

13:15

9.3 C

1021.3 hpa

78 %

14.5 km/h aus 117

20.9 km/h aus SSW

5.7 C

6.8 C

6.9 C

9.2 C

0 W/m

0.00 mm

13:20

9.4 C

1021.3 hpa

78 %

9.7 km/h aus 116

14.5 km/h aus SSW

5.8 C

7.9 C

8.1 C

9.3 C

0 W/m

0.00 mm

13:25

9.5 C

1021.3 hpa

78 %

9.7 km/h aus 116

16.1 km/h aus SSW

5.9 C

8.0 C

8.1 C

9.4 C

0 W/m

0.00 mm

13:30

9.6 C

1021.3 hpa

78 %

9.7 km/h aus 116

22.5 km/h aus SSW

6.0 C

8.2 C

8.3 C

9.5 C

0 W/m

0.00 mm

13:35

9.7 C

1021.3 hpa

77 %

8.0 km/h aus 117

17.7 km/h aus S

5.8 C

8.5 C

8.6 C

9.6 C

0 W/m

0.00 mm

13:40

9.7 C

1021.3 hpa

76 %

12.9 km/h aus 116

20.9 km/h aus SSW

5.6 C

7.6 C

7.7 C

9.6 C

0 W/m

0.00 mm

13:45

9.7 C

1021.3 hpa

76 %

11.3 km/h aus 116

19.3 km/h aus SSW

5.7 C

8.0 C

8.1 C

9.6 C

0 W/m

0.00 mm

13:50

9.8 C

1021.3 hpa

77 %

11.3 km/h aus 117

20.9 km/h aus S

5.9 C

8.1 C

8.2 C

9.7 C

0 W/m

0.00 mm

13:55

9.8 C

1021.3 hpa

76 %

9.7 km/h aus 117

17.7 km/h aus SW

5.8 C

8.4 C

8.5 C

9.7 C

0 W/m

0.00 mm

14:00

9.9 C

1021.4 hpa

76 %

12.9 km/h aus 117

22.5 km/h aus S

5.9 C

7.8 C

7.9 C

9.8 C

0 W/m

0.00 mm

14:05

9.9 C

1021.4 hpa

76 %

11.3 km/h aus 117

22.5 km/h aus S

5.9 C

8.3 C

8.4 C

9.8 C

0 W/m

0.00 mm

14:10

9.9 C

1021.4 hpa

76 %

11.3 km/h aus 117

22.5 km/h aus S

5.9 C

8.3 C

8.4 C

9.8 C

0 W/m

0.00 mm

14:15

9.9 C

1021.4 hpa

75 %

12.9 km/h aus 117

22.5 km/h aus SSW

5.7 C

7.8 C

7.9 C

9.8 C

0 W/m

0.00 mm

14:20

9.8 C

1021.4 hpa

75 %

9.7 km/h aus 117

20.9 km/h aus SW

5.6 C

8.4 C

8.5 C

9.7 C

0 W/m

0.00 mm

14:25

9.8 C

1021.4 hpa

76 %

9.7 km/h aus 117

19.3 km/h aus S

5.7 C

8.3 C

8.4 C

9.7 C

0 W/m

0.00 mm

14:30

9.8 C

1021.4 hpa

75 %

11.3 km/h aus 117

17.7 km/h aus SSW

5.6 C

8.1 C

8.2 C

9.7 C

0 W/m

0.00 mm

14:35

9.8 C

1021.4 hpa

75 %

11.3 km/h aus 117

20.9 km/h aus SW

5.6 C

8.1 C

8.2 C

9.7 C

0 W/m

0.00 mm

14:40

9.8 C

1021.4 hpa

74 %

14.5 km/h aus 116

20.9 km/h aus SSW

5.4 C

7.3 C

7.5 C

9.7 C

0 W/m

0.00 mm

14:45

9.8 C

1021.4 hpa

74 %

12.9 km/h aus 117

20.9 km/h aus SSW

5.4 C

7.7 C

7.8 C

9.7 C

0 W/m

0.00 mm

14:50

9.7 C

1021.4 hpa

74 %

9.7 km/h aus 116

19.3 km/h aus S

5.3 C

8.2 C

8.4 C

9.6 C

0 W/m

0.00 mm

14:55

9.7 C

1021.4 hpa

74 %

9.7 km/h aus 117

19.3 km/h aus SSW

5.3 C

8.2 C

8.3 C

9.5 C

0 W/m

0.00 mm

15:00

9.6 C

1021.5 hpa

75 %

9.7 km/h aus 117

17.7 km/h aus SSW

5.4 C

8.1 C

8.3 C

9.4 C

0 W/m

0.00 mm

15:05

9.5 C

1021.5 hpa

75 %

12.9 km/h aus 117

22.5 km/h aus SSW

5.3 C

7.3 C

7.4 C

9.3 C

0 W/m

0.00 mm

15:10

9.3 C

1021.5 hpa

75 %

8.0 km/h aus 116

11.3 km/h aus SSW

5.1 C

8.1 C

8.2 C

9.2 C

0 W/m

0.00 mm

15:15

9.3 C

1021.8 hpa

76 %

3.2 km/h aus 115

8.0 km/h aus SSW

5.3 C

9.1 C

9.3 C

9.1 C

0 W/m

0.00 mm

15:20

9.3 C

1021.8 hpa

76 %

3.2 km/h aus 116

8.0 km/h aus SSW

5.3 C

9.2 C

9.3 C

9.2 C

0 W/m

0.00 mm

15:25

9.4 C

1021.8 hpa

76 %

3.2 km/h aus 116

8.0 km/h aus SSW

5.4 C

9.2 C

9.4 C

9.2 C

0 W/m

0.00 mm

15:30

9.4 C

1021.9 hpa

76 %

6.4 km/h aus 117

16.1 km/h aus SSW

5.4 C

8.5 C

8.7 C

9.2 C

0 W/m

0.00 mm

15:35

9.3 C

1021.9 hpa

75 %

11.3 km/h aus 116

20.9 km/h aus SW

5.1 C

7.5 C

7.7 C

9.2 C

0 W/m

0.00 mm

15:40

9.3 C

1021.9 hpa

75 %

6.4 km/h aus 117

11.3 km/h aus SSW

5.1 C

8.4 C

8.6 C

9.2 C

0 W/m

0.00 mm

15:45

9.2 C

1021.9 hpa

76 %

4.8 km/h aus 117

9.7 km/h aus SSW

5.2 C

8.8 C

8.9 C

9.1 C

0 W/m

0.00 mm

15:50

9.1 C

1021.9 hpa

76 %

4.8 km/h aus 116

9.7 km/h aus SSW

5.1 C

8.6 C

8.8 C

8.9 C

0 W/m

0.00 mm

15:55

8.9 C

1021.9 hpa

77 %

6.4 km/h aus 117

16.1 km/h aus S

5.1 C

8.1 C

8.2 C

8.8 C

0 W/m

0.00 mm

16:00

8.8 C

1022.2 hpa

77 %

6.4 km/h aus 117

9.7 km/h aus SSW

5.0 C

7.9 C

8.1 C

8.7 C

0 W/m

0.00 mm

16:05

8.8 C

1022.2 hpa

78 %

4.8 km/h aus 117

9.7 km/h aus SSW

5.2 C

8.3 C

8.4 C

8.7 C

0 W/m

0.00 mm

16:10

8.7 C

1022.2 hpa

78 %

6.4 km/h aus 117

14.5 km/h aus SSW

5.1 C

7.8 C

7.9 C

8.6 C

0 W/m

0.00 mm

16:15

8.7 C

1022.3 hpa

78 %

8.0 km/h aus 117

16.1 km/h aus SSW

5.0 C

7.3 C

7.4 C

8.6 C

0 W/m

0.00 mm

16:20

8.6 C

1022.3 hpa

78 %

6.4 km/h aus 115

11.3 km/h aus SSW

5.0 C

7.7 C

7.8 C

8.5 C

0 W/m

0.00 mm

16:25

8.5 C

1022.3 hpa

78 %

4.8 km/h aus 117

9.7 km/h aus SSW

4.9 C

8.0 C

8.1 C

8.4 C

0 W/m

0.00 mm

16:30

8.4 C

1022.4 hpa

78 %

4.8 km/h aus 117

11.3 km/h aus SSW

4.8 C

7.9 C

8.0 C

8.3 C

0 W/m

0.00 mm

16:35

8.3 C

1022.4 hpa

79 %

6.4 km/h aus 118

9.7 km/h aus W

4.8 C

7.3 C

7.4 C

8.2 C

0 W/m

0.00 mm

16:40

8.2 C

1022.4 hpa

79 %

6.4 km/h aus 117

14.5 km/h aus SSW

4.7 C

7.1 C

7.2 C

8.1 C

0 W/m

0.00 mm

16:45

8.1 C

1022.6 hpa

79 %

6.4 km/h aus 116

11.3 km/h aus SSW

4.6 C

7.0 C

7.1 C

7.9 C

0 W/m

0.00 mm

16:50

7.9 C

1022.6 hpa

80 %

6.4 km/h aus 117

14.5 km/h aus SSW

4.7 C

6.9 C

7.0 C

7.8 C

0 W/m

0.00 mm

16:55

7.8 C

1022.6 hpa

80 %

4.8 km/h aus 117

11.3 km/h aus SW

4.6 C

7.3 C

7.4 C

7.7 C

0 W/m

0.00 mm

17:00

7.7 C

1022.8 hpa

80 %

6.4 km/h aus 117

16.1 km/h aus SW

4.5 C

6.6 C

6.7 C

7.6 C

0 W/m

0.00 mm

17:05

7.6 C

1022.8 hpa

80 %

6.4 km/h aus 114

11.3 km/h aus SSW

4.3 C

6.4 C

6.6 C

7.4 C

0 W/m

0.00 mm

17:10

7.4 C

1022.8 hpa

80 %

4.8 km/h aus 116

11.3 km/h aus SSW

4.2 C

6.8 C

6.9 C

7.3 C

0 W/m

0.00 mm

17:15

7.3 C

1022.9 hpa

81 %

4.8 km/h aus 117

11.3 km/h aus SW

4.2 C

6.6 C

6.7 C

7.2 C

0 W/m

0.00 mm

17:20

7.2 C

1022.9 hpa

81 %

6.4 km/h aus 116

12.9 km/h aus SSW

4.2 C

6.1 C

6.2 C

7.1 C

0 W/m

0.00 mm

17:25

7.2 C

1022.9 hpa

82 %

6.4 km/h aus 117

14.5 km/h aus SSW

4.3 C

6.0 C

6.1 C

7.1 C

0 W/m

0.00 mm

17:30

7.2 C

1023.2 hpa

82 %

8.0 km/h aus 115

17.7 km/h aus SSW

4.3 C

5.6 C

5.7 C

7.1 C

0 W/m

0.00 mm

17:35

7.2 C

1023.2 hpa

82 %

6.4 km/h aus 117

11.3 km/h aus SSW

4.3 C

6.0 C

6.1 C

7.1 C

0 W/m

0.00 mm

17:40

7.1 C

1023.2 hpa

82 %

4.8 km/h aus 117

9.7 km/h aus SSW

4.2 C

6.4 C

6.6 C

7.0 C

0 W/m

0.00 mm

17:45

7.0 C

1023.2 hpa

82 %

6.4 km/h aus 117

11.3 km/h aus SSW

4.1 C

5.8 C

5.9 C

6.9 C

0 W/m

0.00 mm

17:50

6.9 C

1023.2 hpa

82 %

4.8 km/h aus 116

9.7 km/h aus SSW

4.1 C

6.3 C

6.4 C

6.8 C

0 W/m

0.00 mm

17:55

6.8 C

1023.2 hpa

82 %

4.8 km/h aus 117

9.7 km/h aus SSW

4.0 C

6.1 C

6.2 C

6.7 C

0 W/m

0.00 mm

18:00

6.8 C

1023.3 hpa

83 %

4.8 km/h aus 117

8.0 km/h aus SSW

4.1 C

6.1 C

6.2 C

6.7 C

0 W/m

0.00 mm

18:05

6.7 C

1023.3 hpa

83 %

3.2 km/h aus 117

8.0 km/h aus SSW

4.0 C

6.7 C

6.7 C

6.7 C

0 W/m

0.00 mm

18:10

6.7 C

1023.3 hpa

83 %

3.2 km/h aus 117

6.4 km/h aus SSW

4.0 C

6.6 C

6.7 C

6.6 C

0 W/m

0.00 mm

18:15

6.6 C

1023.4 hpa

83 %

3.2 km/h aus 117

6.4 km/h aus SSW

3.9 C

6.6 C

6.6 C

6.6 C

0 W/m

0.00 mm

18:20

6.6 C

1023.4 hpa

83 %

1.6 km/h aus 116

4.8 km/h aus SSW

3.9 C

6.5 C

6.6 C

6.5 C

0 W/m

0.00 mm

18:25

6.4 C

1023.4 hpa

82 %

0.0 km/h aus 117

3.2 km/h aus SSW

3.6 C

6.3 C

6.4 C

6.3 C

0 W/m

0.00 mm

18:30

6.3 C

1023.5 hpa

82 %

0.0 km/h aus 117

1.6 km/h aus SSW

3.4 C

6.2 C

6.3 C

6.2 C

0 W/m

0.00 mm

18:35

6.1 C

1023.5 hpa

81 %

0.0 km/h aus 115

1.6 km/h aus SSW

3.1 C

5.9 C

6.1 C

5.9 C

0 W/m

0.00 mm

18:40

5.9 C

1023.5 hpa

81 %

0.0 km/h aus 117

1.6 km/h aus SSW

2.9 C

5.7 C

5.9 C

5.7 C

0 W/m

0.00 mm

18:45

5.7 C

1023.6 hpa

81 %

1.6 km/h aus 117

4.8 km/h aus SSW

2.7 C

5.6 C

5.7 C

5.6 C

0 W/m

0.00 mm

18:50

5.5 C

1023.6 hpa

80 %

1.6 km/h aus 116

4.8 km/h aus SSW

2.3 C

5.3 C

5.5 C

5.3 C

0 W/m

0.00 mm

18:55

5.3 C

1023.6 hpa

80 %

3.2 km/h aus 116

4.8 km/h aus SSW

2.2 C

5.2 C

5.3 C

5.2 C

0 W/m

0.00 mm

19:00

5.2 C

1023.7 hpa

81 %

3.2 km/h aus 116

4.8 km/h aus SSW

2.2 C

4.9 C

5.1 C

5.0 C

0 W/m

0.00 mm

19:05

5.1 C

1023.7 hpa

81 %

3.2 km/h aus 117

6.4 km/h aus SSW

2.1 C

4.8 C

5.0 C

4.9 C

0 W/m

0.00 mm

19:10

4.9 C

1023.7 hpa

81 %

1.6 km/h aus 117

3.2 km/h aus SSW

1.9 C

4.7 C

4.9 C

4.7 C

0 W/m

0.00 mm

19:15

4.7 C

1023.9 hpa

81 %

0.0 km/h aus 117

1.6 km/h aus SSW

1.7 C

4.6 C

4.7 C

4.6 C

0 W/m

0.00 mm

19:20

4.6 C

1023.9 hpa

81 %

0.0 km/h aus 117

3.2 km/h aus SSW

1.6 C

4.4 C

4.6 C

4.4 C

0 W/m

0.00 mm

19:25

4.4 C

1023.9 hpa

81 %

0.0 km/h aus 117

1.6 km/h aus SSW

1.5 C

4.3 C

4.4 C

4.3 C

0 W/m

0.00 mm

19:30

4.3 C

1024.0 hpa

81 %

0.0 km/h aus 117

3.2 km/h aus SSW

1.4 C

4.2 C

4.3 C

4.2 C

0 W/m

0.00 mm

19:35

4.2 C

1024.0 hpa

81 %

0.0 km/h aus 116

3.2 km/h aus SSW

1.2 C

4.1 C

4.2 C

4.1 C

0 W/m

0.00 mm

19:40

4.1 C

1024.0 hpa

81 %

0.0 km/h aus 117

0.0 km/h aus ---

1.1 C

3.9 C

4.1 C

3.9 C

0 W/m

0.00 mm

19:45

3.9 C

1024.3 hpa

81 %

0.0 km/h aus 116

0.0 km/h aus ---

1.0 C

3.8 C

3.9 C

3.8 C

0 W/m

0.00 mm

19:50

3.8 C

1024.3 hpa

82 %

0.0 km/h aus 116

0.0 km/h aus ---

1.0 C

3.7 C

3.8 C

3.7 C

0 W/m

0.00 mm

19:55

3.7 C

1024.3 hpa

82 %

0.0 km/h aus 117

0.0 km/h aus ---

0.9 C

3.6 C

3.7 C

3.6 C

0 W/m

0.00 mm

20:00

3.6 C

1024.4 hpa

82 %

0.0 km/h aus 115

0.0 km/h aus ---

0.8 C

3.4 C

3.6 C

3.4 C

0 W/m

0.00 mm

20:05

3.5 C

1024.4 hpa

82 %

0.0 km/h aus 117

1.6 km/h aus SSW

0.7 C

3.3 C

3.5 C

3.3 C

0 W/m

0.00 mm

20:10

3.4 C

1024.4 hpa

82 %

0.0 km/h aus 117

1.6 km/h aus SSW

0.6 C

3.2 C

3.4 C

3.2 C

0 W/m

0.00 mm

20:15

3.3 C

1024.5 hpa

82 %

0.0 km/h aus 117

1.6 km/h aus SSW

0.6 C

3.2 C

3.3 C

3.2 C

0 W/m

0.00 mm

20:20

3.2 C

1024.5 hpa

83 %

0.0 km/h aus 117

1.6 km/h aus SSW

0.6 C

3.1 C

3.2 C

3.1 C

0 W/m

0.00 mm

20:25

3.2 C

1024.5 hpa

82 %

0.0 km/h aus 117

1.6 km/h aus SSW

0.4 C

3.0 C

3.2 C

3.0 C

0 W/m

0.00 mm

20:30

3.1 C

1024.5 hpa

83 %

0.0 km/h aus 116

0.0 km/h aus ---

0.5 C

3.0 C

3.1 C

3.0 C

0 W/m

0.00 mm

20:35

3.1 C

1024.5 hpa

83 %

0.0 km/h aus 116

0.0 km/h aus ---

0.4 C

2.9 C

3.1 C

2.9 C

0 W/m

0.00 mm

20:40

3.0 C

1024.5 hpa

83 %

0.0 km/h aus 116

0.0 km/h aus ---

0.4 C

2.9 C

3.0 C

2.9 C

0 W/m

0.00 mm

20:45

2.9 C

1024.5 hpa

83 %

0.0 km/h aus 117

0.0 km/h aus ---

0.3 C

2.8 C

2.9 C

2.8 C

0 W/m

0.00 mm

20:50

2.8 C

1024.5 hpa

83 %

0.0 km/h aus 116

0.0 km/h aus ---

0.2 C

2.7 C

2.8 C

2.7 C

0 W/m

0.00 mm

20:55

2.8 C

1024.5 hpa

83 %

0.0 km/h aus 116

1.6 km/h aus SSW

0.2 C

2.7 C

2.8 C

2.7 C

0 W/m

0.00 mm

21:00

2.7 C

1024.8 hpa

83 %

1.6 km/h aus 117

4.8 km/h aus SSW

0.1 C

2.6 C

2.7 C

2.6 C

0 W/m

0.00 mm

21:05

2.6 C

1024.8 hpa

83 %

1.6 km/h aus 117

3.2 km/h aus SSW

0.0 C

2.5 C

2.6 C

2.5 C

0 W/m

0.00 mm

21:10

2.6 C

1024.8 hpa

83 %

1.6 km/h aus 117

4.8 km/h aus SSW

0.0 C

2.4 C

2.6 C

2.4 C

0 W/m

0.00 mm

21:15

2.5 C

1025.0 hpa

84 %

1.6 km/h aus 117

4.8 km/h aus SSW

0.1 C

2.4 C

2.5 C

2.4 C

0 W/m

0.00 mm

21:20

2.4 C

1025.0 hpa

84 %

3.2 km/h aus 117

6.4 km/h aus SSW

0.0 C

2.0 C

2.1 C

2.3 C

0 W/m

0.00 mm

21:25

2.4 C

1025.0 hpa

84 %

4.8 km/h aus 115

6.4 km/h aus SSW

0.0 C

1.1 C

1.2 C

2.3 C

0 W/m

0.00 mm

21:30

2.3 C

1025.0 hpa

84 %

6.4 km/h aus 117

8.0 km/h aus SSW

-0.1 C

0.4 C

0.5 C

2.2 C

0 W/m

0.00 mm

21:35

2.3 C

1025.0 hpa

84 %

4.8 km/h aus 117

8.0 km/h aus SSW

-0.1 C

1.0 C

1.1 C

2.2 C

0 W/m

0.00 mm

21:40

2.3 C

1025.0 hpa

85 %

4.8 km/h aus 115

8.0 km/h aus SSW

0.0 C

1.0 C

1.1 C

2.2 C

0 W/m

0.00 mm

21:45

2.2 C

1025.0 hpa

85 %

3.2 km/h aus 117

4.8 km/h aus SSW

0.0 C

1.8 C

1.9 C

2.1 C

0 W/m

0.00 mm

21:50

2.2 C

1025.0 hpa

85 %

3.2 km/h aus 117

4.8 km/h aus SSW

0.0 C

1.8 C

1.9 C

2.1 C

0 W/m

0.00 mm

21:55

2.2 C

1025.0 hpa

86 %

3.2 km/h aus 117

6.4 km/h aus SSW

0.1 C

1.7 C

1.8 C

2.1 C

0 W/m

0.00 mm

22:00

2.2 C

1024.9 hpa

86 %

3.2 km/h aus 117

6.4 km/h aus SSW

0.1 C

1.7 C

1.8 C

2.1 C

0 W/m

0.00 mm

22:05

2.2 C

1024.9 hpa

86 %

4.8 km/h aus 117

9.7 km/h aus SE

0.1 C

0.8 C

0.9 C

2.1 C

0 W/m

0.00 mm

22:10

2.2 C

1024.9 hpa

86 %

6.4 km/h aus 117

8.0 km/h aus SE

0.1 C

0.2 C

0.3 C

2.1 C

0 W/m

0.00 mm

22:15

2.2 C

1025.0 hpa

86 %

6.4 km/h aus 117

9.7 km/h aus SE

0.1 C

0.2 C

0.3 C

2.1 C

0 W/m

0.00 mm

22:20

2.2 C

1025.0 hpa

87 %

6.4 km/h aus 117

9.7 km/h aus SE

0.3 C

0.3 C

0.4 C

2.1 C

0 W/m

0.00 mm

22:25

2.3 C

1025.0 hpa

87 %

8.0 km/h aus 116

9.7 km/h aus SE

0.3 C

-0.2 C

-0.1 C

2.2 C

0 W/m

0.00 mm

22:30

2.3 C

1025.0 hpa

87 %

6.4 km/h aus 116

8.0 km/h aus SE

0.4 C

0.4 C

0.5 C

2.2 C

0 W/m

0.00 mm

22:35

2.4 C

1025.0 hpa

87 %

6.4 km/h aus 117

8.0 km/h aus SE

0.4 C

0.4 C

0.6 C

2.3 C

0 W/m

0.00 mm

22:40

2.4 C

1025.0 hpa

88 %

6.4 km/h aus 116

8.0 km/h aus SE

0.7 C

0.6 C

0.7 C

2.4 C

0 W/m

0.00 mm

22:45

2.4 C

1025.1 hpa

88 %

4.8 km/h aus 116

9.7 km/h aus SE

0.7 C

1.2 C

1.3 C

2.4 C

0 W/m

0.00 mm

22:50

2.4 C

1025.1 hpa

88 %

6.4 km/h aus 117

8.0 km/h aus SE

0.7 C

0.6 C

0.7 C

2.4 C

0 W/m

0.00 mm

22:55

2.4 C

1025.1 hpa

88 %

6.4 km/h aus 118

9.7 km/h aus SE

0.7 C

0.6 C

0.7 C

2.4 C

0 W/m

0.00 mm

23:00

2.4 C

1025.2 hpa

88 %

6.4 km/h aus 116

9.7 km/h aus SE

0.7 C

0.6 C

0.7 C

2.4 C

0 W/m

0.00 mm

23:05

2.4 C

1025.2 hpa

88 %

4.8 km/h aus 116

8.0 km/h aus SE

0.7 C

1.2 C

1.3 C

2.4 C

0 W/m

0.00 mm

23:10

2.4 C

1025.2 hpa

88 %

4.8 km/h aus 117

8.0 km/h aus SE

0.7 C

1.2 C

1.3 C

2.4 C

0 W/m

0.00 mm

23:15

2.4 C

1025.3 hpa

89 %

3.2 km/h aus 117

6.4 km/h aus SE

0.8 C

2.1 C

2.1 C

2.4 C

0 W/m

0.00 mm

23:20

2.4 C

1025.3 hpa

88 %

4.8 km/h aus 117

6.4 km/h aus SE

0.7 C

1.2 C

1.3 C

2.4 C

0 W/m

0.00 mm

23:25

2.4 C

1025.3 hpa

89 %

3.2 km/h aus 117

6.4 km/h aus SE

0.8 C

2.1 C

2.1 C

2.4 C

0 W/m

0.00 mm

23:30

2.4 C

1025.5 hpa

89 %

3.2 km/h aus 116

8.0 km/h aus SE

0.8 C

2.1 C

2.1 C

2.4 C

0 W/m

0.00 mm

23:35

2.5 C

1025.5 hpa

89 %

1.6 km/h aus 117

4.8 km/h aus SE

0.9 C

2.4 C

2.5 C

2.4 C

0 W/m

0.00 mm

23:40

2.6 C

1025.5 hpa

89 %

1.6 km/h aus 117

4.8 km/h aus SE

0.9 C

2.5 C

2.6 C

2.5 C

0 W/m

0.00 mm

23:45

2.6 C

1025.6 hpa

89 %

3.2 km/h aus 116

6.4 km/h aus SE

0.9 C

2.2 C

2.2 C

2.5 C

0 W/m

0.00 mm

23:50

2.6 C

1025.6 hpa

89 %

3.2 km/h aus 116

6.4 km/h aus SE

1.0 C

2.2 C

2.3 C

2.6 C

0 W/m

0.00 mm

23:55

2.6 C

1025.6 hpa

89 %

1.6 km/h aus 117

4.8 km/h aus SE

1.0 C

2.6 C

2.6 C

2.6 C

0 W/m

0.00 mm